When you browse on this site, cookies collect data to enhance your experience and personalize the content and advertising you see.
Visit our Privacy Policy to learn more. By continuing to use the site, you agree to this use of cookies and data.
  • Em Portugal
  • Lista de países
  • Para 7 dias
  • Temperatura da água
  • Mapa do tempo
  • Widgets de tempo
  • user-avatar
    Iniciar Sessão

    Previsão horária em Igls

    Hoje, 12 Novembro, Terça-feira

    Tempo Temperatura Precipitação Vento Pressão Humidade
    00:00 +4°C° 0.3 mm 1 m/s 677 mmHg 94%
    01:00 +4°C° 0 mm 1 m/s 677 mmHg 95%
    02:00 +4°C° 1 mm 1 m/s 677 mmHg 96%
    03:00 +4°C° 1 mm 1 m/s 677 mmHg 96%
    04:00 +4°C° 1 mm 1 m/s 677 mmHg 97%
    05:00 +3°C° 1.2 mm 1 m/s 677 mmHg 97%
    06:00 +3°C° 1.2 mm 1 m/s 677 mmHg 97%
    07:00 +1°C° 0 mm 0 m/s 677 mmHg 96%
    08:00 +3°C° 0.8 mm 1 m/s 676 mmHg 95%
    09:00 +3°C° 0.8 mm 1 m/s 676 mmHg 93%
    10:00 +4°C° 0.8 mm 1 m/s 676 mmHg 91%
    11:00 +4°C° 0.4 mm 1 m/s 676 mmHg 89%
    12:00 +5°C° 0.4 mm 1 m/s 675 mmHg 88%
    13:00 +5°C° 0.4 mm 1 m/s 675 mmHg 86%
    14:00 +3°C° 0.2 mm 2 m/s 675 mmHg 89%
    15:00 +3°C° 0.2 mm 2 m/s 674 mmHg 91%
    16:00 +2°C° 0.2 mm 2 m/s 674 mmHg 94%
    17:00 +2°C° 0.3 mm 2 m/s 674 mmHg 95%
    18:00 +2°C° 0.3 mm 2 m/s 674 mmHg 96%
    19:00 +1°C° 0.3 mm 2 m/s 674 mmHg 97%
    20:00 +1°C° 2.3 mm 2 m/s 673 mmHg 97%
    21:00 +1°C° 2.3 mm 2 m/s 673 mmHg 97%
    22:00 +1°C° 2.3 mm 1 m/s 673 mmHg 97%
    23:00 +1°C° 1.9 mm 1 m/s 673 mmHg 97%

    Amanhã, 13 Novembro, Quarta-feira

    Tempo Temperatura Precipitação Vento Pressão Humidade
    00:00 +1°C° 1.9 mm 1 m/s 673 mmHg 97%
    01:00 +1°C° 1.9 mm 1 m/s 673 mmHg 97%
    02:00 +1°C° 1.6 mm 1 m/s 672 mmHg 97%
    03:00 +1°C° 1.6 mm 1 m/s 672 mmHg 97%
    04:00 0°C° 1.6 mm 1 m/s 672 mmHg 97%
    05:00 0°C° 1.2 mm 1 m/s 672 mmHg 97%
    06:00 0°C° 1.2 mm 1 m/s 672 mmHg 97%
    07:00 0°C° 1.2 mm 1 m/s 672 mmHg 97%
    08:00 +1°C° 0.9 mm 1 m/s 672 mmHg 97%
    09:00 +1°C° 0.9 mm 1 m/s 672 mmHg 96%
    10:00 +2°C° 0.9 mm 1 m/s 672 mmHg 96%
    11:00 +1°C° 0.8 mm 2 m/s 672 mmHg 96%
    12:00 +1°C° 0.8 mm 2 m/s 672 mmHg 96%
    13:00 +2°C° 0.8 mm 2 m/s 672 mmHg 96%
    14:00 +1°C° 0.7 mm 2 m/s 673 mmHg 96%
    15:00 +1°C° 0.7 mm 2 m/s 673 mmHg 97%
    16:00 +2°C° 0.7 mm 1 m/s 673 mmHg 97%
    17:00 +1°C° 0.1 mm 1 m/s 673 mmHg 97%
    18:00 0°C° 0.1 mm 1 m/s 673 mmHg 97%
    19:00 -1°C° 0.1 mm 1 m/s 674 mmHg 97%
    20:00 -2°C° 0 mm 1 m/s 674 mmHg 93%
    21:00 -3°C° 0 mm 1 m/s 674 mmHg 89%
    22:00 -4°C° 0 mm 1 m/s 674 mmHg 86%
    23:00 -6°C° 0 mm 2 m/s 674 mmHg 84%

    Depois de amanhã, 14 Novembro, Quinta-feira

    Tempo Temperatura Precipitação Vento Pressão Humidade
    00:00 -6°C° 0 mm 2 m/s 674 mmHg 82%
    01:00 -6°C° 0 mm 2 m/s 674 mmHg 80%
    02:00 -6°C° 0 mm 2 m/s 674 mmHg 81%
    03:00 -7°C° 0 mm 3 m/s 674 mmHg 82%
    04:00 -7°C° 0 mm 3 m/s 674 mmHg 84%
    05:00 -6°C° 0 mm 3 m/s 674 mmHg 85%
    06:00 -6°C° 0 mm 3 m/s 674 mmHg 86%
    07:00 -7°C° 0 mm 4 m/s 674 mmHg 87%
    08:00 -4°C° 0 mm 4 m/s 674 mmHg 87%
    09:00 -2°C° 0 mm 4 m/s 674 mmHg 87%
    10:00 0°C° 0 mm 4 m/s 675 mmHg 87%
    11:00 0°C° 0 mm 4 m/s 675 mmHg 88%
    12:00 +2°C° 0 mm 3 m/s 675 mmHg 90%
    13:00 +3°C° 0 mm 3 m/s 675 mmHg 91%
    14:00 +2°C° 0 mm 3 m/s 674 mmHg 91%
    15:00 +1°C° 0 mm 3 m/s 674 mmHg 91%
    16:00 0°C° 0 mm 3 m/s 673 mmHg 91%
    17:00 -2°C° 0 mm 4 m/s 673 mmHg 91%
    18:00 -2°C° 0 mm 4 m/s 673 mmHg 91%
    19:00 -3°C° 0 mm 4 m/s 673 mmHg 91%
    20:00 -3°C° 0 mm 4 m/s 673 mmHg 91%
    21:00 -2°C° 0 mm 4 m/s 673 mmHg 92%
    22:00 -2°C° 0 mm 5 m/s 673 mmHg 92%
    23:00 -1°C° 0.1 mm 4 m/s 672 mmHg 92%

    15 Novembro, Sexta-feira

    Tempo Temperatura Precipitação Vento Pressão Humidade
    00:00 -1°C° 0.1 mm 4 m/s 672 mmHg 91%
    01:00 0°C° 0.1 mm 4 m/s 672 mmHg 91%
    02:00 0°C° 0.4 mm 4 m/s 671 mmHg 91%
    03:00 +1°C° 0.4 mm 4 m/s 671 mmHg 91%
    04:00 +1°C° 0.4 mm 4 m/s 671 mmHg 92%
    05:00 +3°C° 1 mm 4 m/s 671 mmHg 92%
    06:00 +3°C° 1 mm 4 m/s 671 mmHg 93%
    07:00 +3°C° 1 mm 3 m/s 671 mmHg 93%
    08:00 +4°C° 1.6 mm 3 m/s 672 mmHg 95%
    09:00 +5°C° 1.6 mm 2 m/s 672 mmHg 97%
    10:00 +5°C° 1.6 mm 2 m/s 673 mmHg 99%
    11:00 +5°C° 2.1 mm 2 m/s 673 mmHg 99%
    12:00 +5°C° 2.1 mm 2 m/s 673 mmHg 99%
    13:00 +5°C° 2.1 mm 2 m/s 674 mmHg 99%
    14:00 +6°C° 1.7 mm 1 m/s 674 mmHg 99%
    15:00 +5°C° 1.7 mm 1 m/s 673 mmHg 99%
    16:00 +5°C° 1.7 mm 1 m/s 673 mmHg 99%
    17:00 +5°C° 3.2 mm 1 m/s 673 mmHg 98%
    18:00 +4°C° 3.2 mm 1 m/s 673 mmHg 98%
    19:00 +4°C° 3.2 mm 1 m/s 674 mmHg 98%
    20:00 +4°C° 2.8 mm 1 m/s 674 mmHg 98%
    21:00 +3°C° 2.8 mm 1 m/s 675 mmHg 98%
    22:00 +3°C° 2.8 mm 1 m/s 675 mmHg 98%
    23:00 +2°C° 0.8 mm 1 m/s 675 mmHg 97%

    16 Novembro, Sábado

    Tempo Temperatura Precipitação Vento Pressão Humidade
    00:00 +2°C° 0.8 mm 1 m/s 676 mmHg 96%
    01:00 +1°C° 0.8 mm 1 m/s 676 mmHg 95%
    02:00 -1°C° 0.2 mm 2 m/s 677 mmHg 95%
    03:00 -1°C° 0.2 mm 2 m/s 677 mmHg 94%
    04:00 -1°C° 0.2 mm 2 m/s 677 mmHg 93%
    05:00 -1°C° 0.1 mm 2 m/s 678 mmHg 93%
    06:00 -1°C° 0.1 mm 2 m/s 678 mmHg 93%
    07:00 +1°C° 0.1 mm 2 m/s 679 mmHg 92%
    08:00 +2°C° 0 mm 2 m/s 680 mmHg 93%
    09:00 +3°C° 0 mm 2 m/s 680 mmHg 94%
    10:00 +4°C° 0 mm 2 m/s 681 mmHg 96%
    11:00 +4°C° 0 mm 2 m/s 681 mmHg 96%
    12:00 +4°C° 0 mm 2 m/s 681 mmHg 96%
    13:00 +5°C° 0 mm 2 m/s 680 mmHg 96%
    14:00 +4°C° 0 mm 2 m/s 680 mmHg 95%
    15:00 +4°C° 0 mm 2 m/s 680 mmHg 94%
    16:00 +3°C° 0 mm 2 m/s 680 mmHg 93%
    17:00 +2°C° 0 mm 2 m/s 680 mmHg 92%
    18:00 +2°C° 0 mm 2 m/s 680 mmHg 91%
    19:00 +1°C° 0 mm 2 m/s 680 mmHg 90%
    20:00 +1°C° 0.1 mm 2 m/s 679 mmHg 91%
    21:00 +2°C° 0.1 mm 2 m/s 679 mmHg 92%
    22:00 +2°C° 0.1 mm 2 m/s 679 mmHg 93%
    23:00 +3°C° 0.4 mm 1 m/s 679 mmHg 94%

    17 Novembro, Domingo

    Tempo Temperatura Precipitação Vento Pressão Humidade
    00:00 +3°C° 0.4 mm 1 m/s 678 mmHg 95%
    01:00 +3°C° 0.4 mm 1 m/s 678 mmHg 96%
    02:00 +3°C° 0.7 mm 1 m/s 677 mmHg 96%
    03:00 +4°C° 0.7 mm 1 m/s 677 mmHg 97%
    04:00 +4°C° 0.7 mm 1 m/s 676 mmHg 97%
    05:00 +4°C° 0.9 mm 1 m/s 676 mmHg 97%
    06:00 +3°C° 0.9 mm 1 m/s 676 mmHg 97%
    07:00 +3°C° 0.9 mm 1 m/s 676 mmHg 96%
    08:00 +4°C° 0.2 mm 1 m/s 676 mmHg 97%
    09:00 +5°C° 0.2 mm 1 m/s 676 mmHg 98%
    10:00 +5°C° 0.2 mm 1 m/s 676 mmHg 99%
    11:00 +6°C° 0.6 mm 1 m/s 676 mmHg 99%
    12:00 +6°C° 0.6 mm 1 m/s 675 mmHg 99%
    13:00 +6°C° 0.6 mm 1 m/s 675 mmHg 99%
    14:00 +6°C° 1.9 mm 1 m/s 674 mmHg 99%
    15:00 +5°C° 1.9 mm 1 m/s 674 mmHg 99%
    16:00 +5°C° 1.9 mm 1 m/s 674 mmHg 99%
    17:00 +5°C° 1.4 mm 1 m/s 673 mmHg 99%
    18:00 +5°C° 1.4 mm 1 m/s 673 mmHg 99%
    19:00 +5°C° 1.4 mm 1 m/s 673 mmHg 98%
    20:00 +5°C° 0.3 mm 1 m/s 673 mmHg 98%
    21:00 +5°C° 0.3 mm 1 m/s 673 mmHg 97%
    22:00 +5°C° 0.3 mm 1 m/s 673 mmHg 97%
    23:00 +4°C° 0.1 mm 1 m/s 673 mmHg 96%
    Mostrar mais